Meteo Giornale » Osservazioni meteo Gran Bretagna » Londra City AP

ore: 14:20 - Osservazioni Meteo Londra City AP
Lat. 51° 30' N Lon. 0° 30' W Alt. 5 metri s.l.m.

sereno Europe/London

26 °C

Sereno

Temp. 24 Ore

16 °C

26 °C

Sud/Sud-Est

11.1 Km/h

Dew point 15 °C

Umidità 50 %

Visibilità  10 Km

Il sole sorge alle ore 05:59

Il sole tramonta alle ore 20:10

Data e Ora Cielo e Fenomeni T °C DP °C Um. % Pres. hPa Vis. km Vento km/h
Oggi h: 14:20 sereno Sereno 26 15 50 1024 10 S/SE 11.1
Oggi h: 13:50 sereno Sereno 26 15 50 1024 10 N 3.7
Oggi h: 13:20 sereno Sereno 25 15 53 1024 10 SE 11.1
Oggi h: 12:50 sereno Sereno 24 15 57 1024 10 N 7.4
Oggi h: 12:20 sereno Sereno 24 15 57 1024 10 SE 7.4
Oggi h: 11:50 sereno Sereno 23 15 60 1025 10 SE 7.4
Oggi h: 11:20 sereno Sereno 23 15 60 1025 10 N 5.5
Oggi h: 10:50 sereno Sereno 22 15 64 1025 10 N 1.8
Oggi h: 10:20 sereno Sereno 21 15 68 1026 10 N 1.8
Oggi h: 09:50 sereno Sereno 20 15 72 1026 10 N 3.7
Oggi h: 09:20 sereno Sereno 20 15 72 1026 10 N 1.8
Oggi h: 08:50 sereno Sereno 19 15 77 1026 10 N 3.7
Oggi h: 08:20 sereno Sereno 18 14 77 1025 10 O/SO 7.4
Oggi h: 07:50 sereno Sereno 18 14 77 1025 10 SO 7.4
Oggi h: 07:20 sereno Sereno 17 14 82 1025 10 SO 7.4
Oggi h: 06:50 sereno Sereno 16 14 87 1025 10 N 5.5
Oggi h: 06:20 sereno Sereno 16 14 87 1025 10 N 5.5
Oggi h: 05:50 sereno Sereno 16 14 87 1025 10 SO 7.4
Oggi h: 05:20 sereno Sereno 16 14 87 1025 10 N 5.5
Oggi h: 04:50 sereno Sereno 16 14 87 1025 10 SO 7.4
Oggi h: 04:20 sereno Sereno 17 14 82 1025 10 SO 7.4
Oggi h: 03:50 sereno Sereno 17 14 82 1025 10 N 5.5
Oggi h: 03:20 sereno Sereno 17 14 82 1025 10 SO 7.4
Oggi h: 02:50 sereno Sereno 17 14 82 1025 10 N 5.5
Oggi h: 02:20 sereno Sereno 17 14 82 1025 10 SO 7.4
Oggi h: 01:50 sereno Sereno 18 14 77 1025 10 O/SO 7.4
Oggi h: 01:20 sereno Sereno 18 14 77 1025 10 O/SO 11.1
Oggi h: 00:50 sereno Sereno 18 14 77 1025 10 SO 9.3
Oggi h: 00:20 sereno Sereno 18 14 77 1025 10 SO 11.1
Ieri h: 23:50 sereno Sereno 19 14 72 1025 10 SO 9.3
Ieri h: 23:20 sereno Sereno 19 14 72 1025 10 O/SO 11.1
Ieri h: 22:50 sereno Sereno 20 14 68 1025 10 SO 13
Ieri h: 22:20 sereno Sereno 20 14 68 1025 10 O/SO 11.1
Ieri h: 21:50 sereno Sereno 20 14 68 1025 10 SO 11.1
Ieri h: 21:20 sereno Sereno 21 14 64 1025 10 O/SO 11.1
Ieri h: 20:50 sereno Sereno 22 14 60 1025 10 SO 11.1
Ieri h: 20:20 sereno Sereno 22 14 60 1024 10 SO 13
Ieri h: 19:50 sereno Sereno 22 14 60 1024 10 O/SO 14.8
Ieri h: 19:20 sereno Sereno 23 14 56 1024 10 O/SO 14.8
Ieri h: 18:50 poco_nuvoloso Poco Nuvoloso 23 13 53 1023 10 O/SO 16.7
Ieri h: 18:20 sereno Sereno 23 13 53 1023 10 O/SO 18.5
Ieri h: 17:50 sereno Sereno 24 13 50 1024 10 O/SO 20.3
Ieri h: 17:20 nuvoloso Nuvoloso 24 13 50 1024 10 O/SO 20.3
Ieri h: 16:50 poco_nuvoloso Poco Nuvoloso 24 13 50 1024 10 SO 16.7
Ieri h: 16:20 nuvoloso Nuvoloso 23 13 53 1024 10 SO 18.5
Ieri h: 15:50 poco_nuvoloso Poco Nuvoloso 24 12 47 1024 10 O/SO 18.5
Ieri h: 15:20 nuvoloso Nuvoloso 24 12 47 1024 10 O 22.2
Ieri h: 14:50 nuvoloso Nuvoloso 24 12 47 1024 10 O/SO 18.5